GPS BIIRM-1 (PRN 17)

Last updated on Wed Sep 09 2026 00:03:22 GMT+0000 (Coordinated Universal Time)

1 28874U 05038A 26251.26460105 .00000020 00000+0 00000+0 0 9995 2 28874 54.8159 269.8175 0128719 297.3749 170.2225 2.00559890153501
UTC large
Height (km)
Speed (km/s)
/
Latitude / Longitude
Inclination (degrees)
Orbital Period (minutes)
Azimuth
Elevation
Range (km)
Doppler Factor

Next 0 passes for location: London (51.5072 / 0.1276)

No passes found over London.
GPS BIIRM-1 (PRN 17)